Powrót do katalogu

FENGYUN 1C DEB

AktywnySSO
NORAD 32101·DEBRIS·🇨🇳 China

Wystrzelony May 10, 1999 z Taiyuan Satellite Launch Center

Loading…

Następne Przeloty (najbliższe 24 godziny)

TLE

ŚwieżeSource: Space-Track

Epoka: Sep 14, 2026, 13:11 UTC

1 32101U 99025CQT 26257.54990961  .00001159  00000-0  73018-3 0  9995
2 32101  99.0210 159.1919 0116084 192.6569 167.1676 14.02993360970482

Śledź FENGYUN 1C DEB w czasie rzeczywistym z AllMySat

Download on the App Store